Location: Kitchener-Waterloo
(43.4500°N, 80.5000°W)
Time: 07:29:07
(UTC-05:00)

Amateur Radio Satellites - All Passes

Search period start: 07 December 2016 06:59
Search period end: 08 December 2016 06:59
Location: Kitchener-Waterloo, 43.4500°N, 80.5000°W

Satellite Date Start Highest point End Downlink Frequencies (MHz)
Time Altitude Azimuth
AIST 1 07 Dec 07:01:52 07:06:18 85° 82° (E) 07:10:42
CUTE-I 07 Dec 07:02:31 07:07:52 80° 286° (WNW) 07:13:11 437.470
BRITE-PL 07 Dec 07:03:40 07:07:41 22° 296° (WNW) 07:11:49 437.365/2234.400
BEESAT 3 07 Dec 07:06:18 07:07:40 11° 325° (NW) 07:09:03 437.485
HORYU 2 07 Dec 07:07:23 07:10:30 19° 297° (WNW) 07:13:36 437.375
YUBILEINY 07 Dec 07:17:56 07:26:23 53° 271° (W) 07:34:50 435.215
LilacSat-2 07 Dec 07:20:53 07:24:14 30° 290° (WNW) 07:27:34 437.200
NOAA 18 07 Dec 07:21:27 07:27:02 88° 286° (WNW) 07:32:32 137.9125
NOAA 15 07 Dec 07:21:42 07:26:47 50° 290° (WNW) 07:31:52 137.62
RS-15 07 Dec 07:23:49 07:35:20 65° 115° (ESE) 07:47:23 29.354- 29.394
Cubesat XI-IV 07 Dec 07:29:04 07:34:12 48° 290° (WNW) 07:39:17 437.490
CUTE 1.7 + AOD 2 07 Dec 07:35:02 07:38:46 30° 96° (E) 07:42:30 437.475
BEESAT 2 07 Dec 07:37:50 07:39:21 12° 325° (NW) 07:40:53 435.950
HO-68 07 Dec 07:39:04 07:45:50 41° 98° (E) 07:52:32 435.675
Cosmos 2504 07 Dec 07:40:48 07:49:34 71° 267° (W) 07:57:48 435.465 / 435.565
Cosmos 2491 07 Dec 07:46:44 07:55:28 69° 281° (W) 08:04:13 435.465 / 435.565
CINEMA 3 07 Dec 07:47:40 07:52:30 72° 101° (E) 07:57:05 145.822/145.860
CANX-2 07 Dec 07:53:01 07:57:10 56° 100° (E) 08:01:19 2200.000
AAUSAT CUBESAT 2 07 Dec 07:53:29 07:56:15 17° 92° (E) 07:59:00 437.432
CUBEBUG 2 07 Dec 07:58:13 08:01:41 22° 93° (E) 08:05:03 437.445
PRISM 07 Dec 08:05:19 08:09:00 34° 69° (ENE) 08:12:43 437.425
GOMX 1 07 Dec 08:13:15 08:15:17 12° 303° (WNW) 08:17:20 467.674
SEEDS 07 Dec 08:15:53 08:20:01 59° 100° (E) 08:24:09 437.485
DOVE 4 07 Dec 08:16:05 08:19:58 21° 297° (WNW) 08:23:47 437.250
STRAND 1 07 Dec 08:16:19 08:19:30 16° 269° (W) 08:22:40 437.568
Oscar 11 07 Dec 08:17:33 08:19:24 12° 90° (E) 08:21:15 145.826/435.025
COMPASS 1 07 Dec 08:24:00 08:28:02 48° 99° (E) 08:32:04 437.405
AIST 2 07 Dec 08:34:38 08:38:42 65° 305° (NW) 08:42:52 435.215
UWE-3 07 Dec 08:37:41 08:41:42 37° 97° (E) 08:45:36 435.000/436.395/437.385
CUTE-I 07 Dec 08:44:59 08:47:03 12° 304° (NW) 08:49:06 437.470
JAS-2 07 Dec 08:59:32 09:00:56 11° 56° (NE) 09:02:18 435.910
UNISAT 6 07 Dec 09:00:09 09:04:19 33° 69° (ENE) 09:08:27 437.425
NOAA 18 07 Dec 09:03:59 09:06:52 15° 304° (NW) 09:09:45 137.9125
CUSAT 1 07 Dec 09:10:48 09:13:32 30° 97° (E) 09:15:59 437.405
CUTE 1.7 + AOD 2 07 Dec 09:11:03 09:14:29 24° 292° (WNW) 09:17:54 437.475
ZACube-1 07 Dec 09:15:47 09:19:59 60° 100° (E) 09:24:05 437.345
FUNcube-1 07 Dec 09:22:44 09:26:56 67° 101° (E) 09:31:03 145.935
CINEMA 3 07 Dec 09:26:24 09:28:58 14° 300° (WNW) 09:31:27 145.822/145.860
HO-68 07 Dec 09:26:52 09:33:30 42° 297° (WNW) 09:40:08 435.675
AAUSAT CUBESAT 2 07 Dec 09:28:00 09:31:54 41° 288° (WNW) 09:35:48 437.432
TIGRISAT 07 Dec 09:29:13 09:33:49 60° 73° (ENE) 09:38:24 435.000
CANX-2 07 Dec 09:30:16 09:32:34 14° 297° (WNW) 09:34:53 2200.000
ANTELSAT 07 Dec 09:30:59 09:35:38 66° 74° (ENE) 09:40:14 437.575/2403.000
CUBEBUG 2 07 Dec 09:34:25 09:38:23 34° 291° (WNW) 09:42:14 437.445
RS-15 07 Dec 09:37:04 09:48:29 48° 321° (NW) 10:00:21 29.354- 29.394
Cosmos 2504 07 Dec 09:37:17 09:41:10 14° 288° (WNW) 09:45:00 435.465 / 435.565
PRISM 07 Dec 09:41:20 09:44:22 20° 266° (W) 09:47:26 437.425
QB50P1 07 Dec 09:44:26 09:45:35 11° 60° (ENE) 09:46:43 145.935-145.965
Cosmos 2491 07 Dec 09:49:38 09:54:12 15° 305° (NW) 09:58:47 435.465 / 435.565
Oscar 11 07 Dec 09:51:40 09:55:56 61° 286° (WNW) 10:00:10 145.826/435.025
SEEDS 07 Dec 09:53:07 09:55:15 14° 297° (WNW) 09:57:22 437.485
GONETS M04 07 Dec 10:00:11 10:05:19 16° 57° (ENE) 10:10:26
COMPASS 1 07 Dec 10:00:39 10:03:13 16° 296° (WNW) 10:05:47 437.405
POPSAT HIP 1 07 Dec 10:04:12 10:07:01 17° 64° (ENE) 10:09:51 437.405
AO-85 07 Dec 10:06:55 10:10:41 38° 49° (NE) 10:14:20 145.980
DANDE 07 Dec 10:07:57 10:12:16 46° 98° (E) 10:15:35 436.750
UWE-3 07 Dec 10:14:43 10:17:54 20° 295° (WNW) 10:21:02 435.000/436.395/437.385
DELFI C3 07 Dec 10:14:58 10:18:57 89° 300° (WNW) 10:22:57 145.870
AIST 2 07 Dec 10:16:34 10:18:01 11° 326° (NNW) 10:19:29 435.215
HUMSAT D 07 Dec 10:32:02 10:36:07 72° 102° (ESE) 10:40:11 437.325/437.525
ESTCUBE 1 07 Dec 10:33:44 10:34:46 11° 88° (E) 10:35:49 437.505/2401.250
BUGSAT 1 07 Dec 10:36:11 10:38:14 13° 61° (ENE) 10:40:17 437.445
Cosmos 2499 07 Dec 10:36:45 10:44:02 29° 65° (ENE) 10:50:52 435.465 / 435.565
UNISAT 6 07 Dec 10:37:01 10:41:01 27° 265° (W) 10:44:59 437.425
JAS-2 07 Dec 10:38:50 10:45:11 68° 73° (ENE) 10:50:49 435.910
ZACube-1 07 Dec 10:53:41 10:55:45 13° 298° (WNW) 10:57:47 437.345
NANOSAT C BR1 07 Dec 10:56:14 11:00:24 56° 73° (ENE) 11:04:35 145.865
CUBEBUG 1 07 Dec 10:56:39 10:58:08 11° 89° (E) 10:59:37 437.445
FUNcube-1 07 Dec 11:00:53 11:02:36 12° 299° (WNW) 11:04:18 145.935
QB50P2 07 Dec 11:03:20 11:07:37 78° 74° (ENE) 11:11:55 145.880/145.840
POLYITAN 1 07 Dec 11:03:49 11:08:06 74° 76° (ENE) 11:12:24 437.675
TIGRISAT 07 Dec 11:08:09 11:10:51 15° 270° (W) 11:13:33 435.000
ANTELSAT 07 Dec 11:10:23 11:12:44 14° 270° (W) 11:15:06 437.575/2403.000
VELOX 1 07 Dec 11:11:21 11:12:27 11° 89° (E) 11:13:33 145.980
PCSat 07 Dec 11:12:04 11:17:16 50° 114° (ESE) 11:22:31 145.827
Oscar 19 07 Dec 11:14:45 11:16:09 11° 56° (NE) 11:17:33 437.125/150
QB50P1 07 Dec 11:16:24 11:20:41 81° 256° (WSW) 11:25:01 145.935-145.965
DUCHIFAT 1 07 Dec 11:17:37 11:21:53 89° 79° (E) 11:26:10 145.980
SPROUT 07 Dec 11:33:33 11:35:21 12° 90° (E) 11:37:09 437.525
POPSAT HIP 1 07 Dec 11:38:17 11:42:25 47° 261° (W) 11:46:35 437.405
AO-85 07 Dec 11:47:56 11:50:49 20° 248° (WSW) 11:53:38 145.980
DANDE 07 Dec 11:53:51 11:54:54 11° 287° (WNW) 11:55:53 436.750
GONETS M04 07 Dec 11:55:06 12:03:51 75° 81° (E) 12:12:35
RS-15 07 Dec 11:55:11 12:05:08 27° 354° (N) 12:15:10 29.354- 29.394
BEESAT 3 07 Dec 12:05:00 12:07:04 14° 37° (NE) 12:09:08 437.485
ESTCUBE 1 07 Dec 12:07:35 12:12:07 78° 284° (WNW) 12:16:38 437.505/2401.250
AISAT 07 Dec 12:08:13 12:12:33 46° 100° (E) 12:16:51 437.250
BUGSAT 1 07 Dec 12:08:51 12:13:04 64° 259° (W) 12:17:18 437.445
HUMSAT D 07 Dec 12:10:03 12:11:09 11° 299° (WNW) 12:12:14 437.325/437.525
JAS-2 07 Dec 12:26:17 12:30:36 19° 267° (W) 12:34:38 435.910
Cosmos 2499 07 Dec 12:29:22 12:37:51 65° 268° (W) 12:45:42 435.465 / 435.565
CUBEBUG 1 07 Dec 12:30:27 12:34:54 71° 285° (WNW) 12:39:18 437.445
NANOSAT C BR1 07 Dec 12:34:19 12:36:28 14° 270° (W) 12:38:37 145.865
BEESAT 2 07 Dec 12:37:08 12:39:17 14° 37° (NE) 12:41:26 435.950
50 SAT 07 Dec 12:38:04 12:41:39 88° 102° (ESE) 12:45:13 437.505
POLYITAN 1 07 Dec 12:43:46 12:44:23 10° 271° (W) 12:45:01 437.675
VELOX 1 07 Dec 12:44:57 12:49:26 76° 285° (WNW) 12:53:53 145.980
Oscar 19 07 Dec 12:49:28 12:54:35 76° 74° (ENE) 12:59:44 437.125/150
TISAT 1 07 Dec 12:50:01 12:52:10 14° 91° (E) 12:54:18 437.305
DX 1 07 Dec 12:53:26 12:57:50 72° 102° (ESE) 13:02:13 434.975-435.025
PCSat 07 Dec 12:56:15 13:00:55 28° 314° (NW) 13:05:36 145.827
Gurwin Techsat 1B 07 Dec 12:57:14 13:02:18 47° 70° (ENE) 13:07:25 435.225
UKube-1 07 Dec 12:57:44 13:02:02 59° 101° (ESE) 13:06:18 .
SPROUT 07 Dec 13:07:25 13:11:41 62° 286° (WNW) 13:15:54 437.525
ITAMSAT 1 07 Dec 13:22:40 13:26:28 21° 61° (ENE) 13:30:15 435.822/435.867
BEESAT 3 07 Dec 13:41:17 13:45:17 89° 235° (SW) 13:49:16 437.485
AISAT 07 Dec 13:45:31 13:48:40 19° 296° (WNW) 13:51:48 437.250
AO-7 07 Dec 13:46:29 13:53:51 37° 58° (ENE) 14:01:16 29.400- 29.500
M-CUBED/EXP-1 PRIME 07 Dec 13:52:09 13:53:44 12° 93° (E) 13:55:17 437.505
GONETS M04 07 Dec 13:53:15 13:59:44 24° 280° (W) 14:06:14
ITUPSAT 1 07 Dec 13:57:16 13:59:58 15° 91° (E) 14:02:40 437.325
RS-15 07 Dec 14:11:25 14:22:35 36° 28° (NNE) 14:33:33 29.354- 29.394
BEESAT 2 07 Dec 14:13:37 14:17:39 88° 250° (WSW) 14:21:41 435.950
TISAT 1 07 Dec 14:24:00 14:28:09 54° 287° (WNW) 14:32:14 437.305
Cosmos 2499 07 Dec 14:26:25 14:29:01 12° 289° (WNW) 14:31:34 435.465 / 435.565
DX 1 07 Dec 14:31:28 14:33:26 13° 300° (WNW) 14:35:25 434.975-435.025
Oscar 19 07 Dec 14:32:00 14:34:29 13° 271° (W) 14:36:58 437.125/150
UKube-1 07 Dec 14:35:09 14:37:35 15° 298° (WNW) 14:40:01 .
Gurwin Techsat 1B 07 Dec 14:38:18 14:42:29 23° 267° (W) 14:46:42 435.225
O/OREOS (USA 219) 07 Dec 15:00:07 15:03:11 18° 100° (E) 15:06:14 437.305
ITAMSAT 1 07 Dec 15:00:23 15:05:30 56° 259° (W) 15:10:39 435.822/435.867
SWISSCUBE 07 Dec 15:00:50 15:05:36 73° 103° (ESE) 15:10:20 437.505
BEESAT 07 Dec 15:04:42 15:09:29 72° 103° (ESE) 15:14:13 436.000
AUBIESAT-1 07 Dec 15:10:30 15:15:03 61° 105° (ESE) 15:19:24 437.475
AIST 2 07 Dec 15:17:15 15:20:04 17° 39° (NE) 15:22:54 435.215
M-CUBED/EXP-1 PRIME 07 Dec 15:24:03 15:28:46 80° 289° (WNW) 15:33:15 437.505
ITUPSAT 1 07 Dec 15:33:31 15:38:13 62° 287° (WNW) 15:42:54 437.325
AO-7 07 Dec 15:38:12 15:46:18 56° 257° (WSW) 15:54:29 29.400- 29.500
ISS 07 Dec 15:52:32 15:55:37 39° 140° (SE) 15:58:45 145.825
MOZHAYETS 4 07 Dec 15:56:50 16:01:23 64° 101° (E) 16:05:54
Cosmos 2491 07 Dec 16:01:18 16:05:27 14° 54° (NE) 16:09:35 435.465 / 435.565
CUBESAT XI-V 07 Dec 16:05:53 16:07:40 12° 88° (E) 16:09:27 437.345
GOMX 1 07 Dec 16:05:57 16:08:56 17° 61° (ENE) 16:12:03 467.674
KKS-1 07 Dec 16:15:36 16:19:51 40° 98° (E) 16:24:03 437.445
STARS 07 Dec 16:17:46 16:21:03 20° 93° (E) 16:24:19 437.465
RS-15 07 Dec 16:24:33 16:37:03 87° 57° (ENE) 16:49:05 29.354- 29.394
HORYU 2 07 Dec 16:28:45 16:33:04 49° 72° (ENE) 16:37:24 437.375
LilacSat-2 07 Dec 16:31:24 16:33:04 13° 63° (ENE) 16:34:44 437.200
BRITE-PL 07 Dec 16:36:41 16:41:00 70° 74° (ENE) 16:45:39 437.365/2234.400
O/OREOS (USA 219) 07 Dec 16:37:47 16:42:12 48° 298° (WNW) 16:46:37 437.305
SWISSCUBE 07 Dec 16:40:18 16:42:47 14° 300° (WNW) 16:45:16 437.505
BEESAT 07 Dec 16:44:06 16:46:40 15° 300° (WNW) 16:49:13 436.000
AUBIESAT-1 07 Dec 16:45:58 16:48:56 17° 304° (WNW) 16:51:52 437.475
CUTE-I 07 Dec 16:46:44 16:51:09 27° 64° (ENE) 16:55:34 437.470
AIST 2 07 Dec 16:54:48 16:59:01 72° 240° (WSW) 17:03:13 435.215
M-CUBED/EXP-1 PRIME 07 Dec 17:00:48 17:02:23 12° 308° (NW) 17:03:58 437.505
NOAA 15 07 Dec 17:03:37 17:08:28 40° 68° (ENE) 17:13:20 137.62
NOAA 18 07 Dec 17:09:30 17:14:11 29° 64° (ENE) 17:18:54 137.9125
Cubesat XI-IV 07 Dec 17:12:27 17:17:30 43° 68° (ENE) 17:22:33 437.490
CINEMA 3 07 Dec 17:17:18 17:18:04 10° 57° (ENE) 17:18:51 145.822/145.860
ISS 07 Dec 17:29:06 17:32:10 35° 338° (NNW) 17:35:15 145.825
MOZHAYETS 4 07 Dec 17:35:28 17:38:01 15° 298° (WNW) 17:40:34
CUBESAT XI-V 07 Dec 17:40:53 17:45:33 74° 285° (WNW) 17:50:13 437.345
GOMX 1 07 Dec 17:41:51 17:46:25 62° 260° (W) 17:51:22 467.674
DOVE 4 07 Dec 17:43:29 17:48:14 61° 73° (ENE) 17:53:18 437.250
KKS-1 07 Dec 17:52:45 17:56:09 22° 295° (WNW) 17:59:32 437.445
STARS 07 Dec 17:53:25 17:57:34 40° 290° (WNW) 18:01:39 437.465
Cosmos 2491 07 Dec 17:55:37 18:04:19 65° 78° (ENE) 18:12:56 435.465 / 435.565
LilacSat-2 07 Dec 18:03:07 18:06:55 54° 261° (W) 18:10:41 437.200
HORYU 2 07 Dec 18:06:58 18:09:53 17° 268° (W) 18:12:49 437.375
HO-68 07 Dec 18:09:05 18:15:25 36° 61° (ENE) 18:21:48 435.675
PCSat 07 Dec 18:17:03 18:19:14 12° 32° (NNE) 18:21:25 145.827
BRITE-PL 07 Dec 18:18:46 18:20:09 11° 274° (W) 18:21:35 437.365/2234.400
YUBILEINY 07 Dec 18:23:57 18:31:48 40° 86° (E) 18:39:43 435.215
CUTE-I 07 Dec 18:25:50 18:30:57 44° 261° (W) 18:36:05 437.470
CUTE 1.7 + AOD 2 07 Dec 18:28:54 18:32:22 25° 68° (ENE) 18:35:50 437.475
Cosmos 2504 07 Dec 18:29:09 18:34:59 21° 77° (ENE) 18:40:58 435.465 / 435.565
RS-15 07 Dec 18:38:30 18:48:00 28° 259° (W) 18:57:19 29.354- 29.394
SO-50 07 Dec 18:41:00 18:43:03 13° 108° (ESE) 18:45:07 436.795
NOAA 15 07 Dec 18:43:54 18:48:20 27° 265° (W) 18:52:47 137.62
STRAND 1 07 Dec 18:45:02 18:48:42 20° 92° (E) 18:52:21 437.568
AAUSAT CUBESAT 2 07 Dec 18:45:34 18:47:43 14° 63° (ENE) 18:49:52 437.432
CANX-2 07 Dec 18:46:38 18:50:38 45° 72° (ENE) 18:54:40 2200.000
CINEMA 3 07 Dec 18:49:20 18:54:16 73° 75° (ENE) 18:59:19 145.822/145.860
NOAA 18 07 Dec 18:49:24 18:54:38 43° 261° (W) 18:59:56 137.9125
Cubesat XI-IV 07 Dec 18:53:13 18:57:42 27° 266° (W) 19:02:12 437.490
CUBEBUG 2 07 Dec 18:56:55 19:00:44 25° 66° (ENE) 19:04:32 437.445
ISS 07 Dec 19:06:50 19:09:20 19° 358° (N) 19:11:50 145.825
SEEDS 07 Dec 19:08:25 19:12:23 45° 72° (ENE) 19:16:22 437.485
Oscar 11 07 Dec 19:14:01 19:15:48 12° 61° (ENE) 19:17:34 145.826/435.025
COMPASS 1 07 Dec 19:15:41 19:19:27 36° 71° (ENE) 19:23:15 437.405
DOVE 4 07 Dec 19:23:20 19:26:24 16° 272° (W) 19:29:34 437.250
AIST 1 07 Dec 19:32:07 19:36:14 46° 93° (E) 19:40:24
UWE-3 07 Dec 19:35:07 19:39:24 37° 70° (ENE) 19:43:38 435.000/436.395/437.385
CUSAT 1 07 Dec 19:38:54 19:42:11 27° 77° (ENE) 19:46:15 437.405
Cosmos 2491 07 Dec 19:53:27 20:00:27 28° 278° (W) 20:07:27 435.465 / 435.565
HO-68 07 Dec 19:56:03 20:02:55 49° 260° (W) 20:09:52 435.675
PCSat 07 Dec 19:58:37 20:03:57 52° 54° (NE) 20:09:14 145.827
CUTE 1.7 + AOD 2 07 Dec 20:04:26 20:08:06 29° 264° (W) 20:11:48 437.475
ZACube-1 07 Dec 20:11:58 20:16:24 55° 73° (ENE) 20:20:47 437.345
SO-50 07 Dec 20:18:07 20:22:53 82° 304° (NW) 20:27:37 436.795
FUNcube-1 07 Dec 20:18:35 20:23:03 60° 74° (ENE) 20:27:26 145.935
Cosmos 2504 07 Dec 20:18:42 20:27:07 86° 277° (W) 20:36:04 435.465 / 435.565
AAUSAT CUBESAT 2 07 Dec 20:18:42 20:22:43 55° 260° (W) 20:26:46 437.432
YUBILEINY 07 Dec 20:20:07 20:28:25 48° 286° (WNW) 20:36:50 435.215
STRAND 1 07 Dec 20:23:14 20:28:11 53° 289° (WNW) 20:33:07 437.568
CANX-2 07 Dec 20:24:04 20:26:44 16° 269° (W) 20:29:23 2200.000
CINEMA 3 07 Dec 20:29:23 20:31:55 14° 272° (W) 20:34:29 145.822/145.860
CUBEBUG 2 07 Dec 20:32:42 20:37:09 38° 263° (W) 20:41:33 437.445
DANDE 07 Dec 20:43:03 20:45:31 25° 77° (ENE) 20:48:26 436.750
ISS 07 Dec 20:43:38 20:46:34 29° 18° (NNE) 20:49:31 145.825
SEEDS 07 Dec 20:45:46 20:48:19 16° 269° (W) 20:50:52 437.485
Oscar 11 07 Dec 20:47:03 20:51:21 71° 258° (WSW) 20:55:40 145.826/435.025
COMPASS 1 07 Dec 20:52:09 20:55:07 19° 267° (W) 20:58:06 437.405
DELFI C3 07 Dec 21:01:20 21:05:11 58° 74° (ENE) 21:09:03 145.870
AIST 1 07 Dec 21:11:21 21:14:06 16° 291° (WNW) 21:16:53
UWE-3 07 Dec 21:12:11 21:15:55 24° 266° (W) 21:19:38 435.000/436.395/437.385
PRISM 07 Dec 21:20:11 21:24:14 47° 100° (E) 21:28:15 437.425
CUSAT 1 07 Dec 21:20:52 21:23:59 23° 265° (W) 21:27:48 437.405
TIGRISAT 07 Dec 21:22:35 21:23:24 10° 88° (E) 21:24:13 435.000
ANTELSAT 07 Dec 21:23:49 21:25:26 12° 89° (E) 21:27:01 437.575/2403.000
HUMSAT D 07 Dec 21:23:52 21:28:00 56° 73° (ENE) 21:32:05 437.325/437.525
ESTCUBE 1 07 Dec 21:34:14 21:36:09 13° 60° (ENE) 21:38:05 437.505/2401.250
PCSat 07 Dec 21:42:42 21:46:59 24° 253° (WSW) 21:51:16 145.827
ZACube-1 07 Dec 21:50:18 21:52:59 15° 269° (W) 21:55:39 437.345
CUBEBUG 1 07 Dec 21:54:03 21:55:46 12° 60° (ENE) 21:57:31 437.445
FUNcube-1 07 Dec 21:57:14 21:59:37 14° 270° (W) 22:02:01 145.935
SO-50 07 Dec 22:01:09 22:04:04 16° 324° (NW) 22:06:59 436.795
VELOX 1 07 Dec 22:09:39 22:11:30 12° 60° (ENE) 22:13:21 145.980
Cosmos 2504 07 Dec 22:15:58 22:21:58 20° 300° (WNW) 22:28:08 435.465 / 435.565
ISS 07 Dec 22:19:59 22:23:16 59° 216° (SW) 22:26:31 145.825
UNISAT 6 07 Dec 22:26:52 22:31:13 58° 100° (E) 22:35:27 437.425
DANDE 07 Dec 22:26:58 22:28:04 11° 266° (W) 22:29:15 436.750
SPROUT 07 Dec 22:28:38 22:30:23 12° 61° (ENE) 22:32:08 437.525
DELFI C3 07 Dec 22:39:17 22:40:23 11° 271° (W) 22:41:28 145.870
QB50P2 07 Dec 22:49:18 22:50:44 11° 89° (E) 22:52:11 145.880/145.840
POLYITAN 1 07 Dec 22:50:06 22:51:11 11° 89° (E) 22:52:16 437.675
TIGRISAT 07 Dec 22:56:16 23:00:39 73° 286° (WNW) 23:04:55 435.000
PRISM 07 Dec 22:56:31 22:59:09 17° 296° (WNW) 23:01:48 437.425
ANTELSAT 07 Dec 22:58:16 23:02:38 65° 285° (WNW) 23:06:53 437.575/2403.000
QB50P1 07 Dec 23:01:18 23:03:45 15° 91° (E) 23:06:10 145.935-145.965
HUMSAT D 07 Dec 23:01:58 23:03:56 13° 270° (W) 23:05:53 437.325/437.525
DUCHIFAT 1 07 Dec 23:02:18 23:04:14 13° 90° (E) 23:06:07 145.980
GONETS M04 07 Dec 23:05:27 23:10:21 17° 75° (ENE) 23:15:15
AISAT 07 Dec 23:06:20 23:10:34 47° 71° (ENE) 23:14:52 437.250
ESTCUBE 1 07 Dec 23:07:53 23:12:21 75° 258° (WSW) 23:16:51 437.505/2401.250
50 SAT 07 Dec 23:14:17 23:17:34 39° 72° (ENE) 23:20:53 437.505
Cosmos 2499 07 Dec 23:15:24 23:21:38 23° 78° (ENE) 23:28:00 435.465 / 435.565
POPSAT HIP 1 07 Dec 23:22:12 23:25:41 24° 95° (E) 23:29:08 437.405
CUBEBUG 1 07 Dec 23:27:04 23:31:25 76° 257° (WSW) 23:35:51 437.445
PHONESAT 2.4 07 Dec 23:28:36 23:29:50 12° 154° (SSE) 23:31:04 2401.200-2431.200
JAS-2 07 Dec 23:31:15 23:36:17 48° 100° (E) 23:41:35 435.910
VELOX 1 07 Dec 23:42:56 23:47:20 75° 257° (WSW) 23:51:48 145.980
TISAT 1 07 Dec 23:43:12 23:45:13 13° 61° (ENE) 23:47:14 437.305
DX 1 07 Dec 23:49:41 23:54:00 71° 74° (ENE) 23:58:22 434.975-435.025
BUGSAT 1 07 Dec 23:50:35 23:53:18 17° 92° (E) 23:55:58 437.445
UKube-1 07 Dec 23:52:59 23:57:12 57° 73° (ENE) 00:01:28 .
SPROUT 08 Dec 00:01:25 00:05:42 72° 257° (WSW) 00:10:03 437.525
UNISAT 6 08 Dec 00:04:57 00:07:26 15° 298° (WNW) 00:09:53 437.425
NANOSAT C BR1 08 Dec 00:14:53 00:19:08 89° 121° (ESE) 00:23:20 145.865
QB50P2 08 Dec 00:22:45 00:26:59 65° 286° (WNW) 00:31:09 145.880/145.840
POLYITAN 1 08 Dec 00:23:14 00:27:27 68° 286° (WNW) 00:31:37 437.675
AO-85 08 Dec 00:25:11 00:26:23 11° 108° (ESE) 00:27:33 145.980
AUBIESAT-1 08 Dec 00:25:48 00:27:14 11° 52° (NE) 00:28:40 437.475
SWISSCUBE 08 Dec 00:33:54 00:35:50 12° 58° (ENE) 00:37:46 437.505
QB50P1 08 Dec 00:35:42 00:39:48 50° 288° (WNW) 00:43:53 145.935-145.965
DUCHIFAT 1 08 Dec 00:36:07 00:40:17 57° 287° (WNW) 00:44:22 145.980
BEESAT 08 Dec 00:37:50 00:39:40 12° 58° (ENE) 00:41:31 436.000
M-CUBED/EXP-1 PRIME 08 Dec 00:38:04 00:40:58 18° 57° (ENE) 00:43:57 437.505
AISAT 08 Dec 00:44:21 00:47:17 17° 268° (W) 00:50:15 437.250
50 SAT 08 Dec 00:49:26 00:51:04 13° 268° (W) 00:52:41 437.505
GONETS M04 08 Dec 00:57:01 01:05:44 82° 96° (E) 01:14:27
POPSAT HIP 1 08 Dec 00:57:45 01:01:28 30° 292° (WNW) 01:05:09 437.405
Oscar 19 08 Dec 01:00:23 01:04:35 24° 94° (E) 01:08:47 437.125/150
PHONESAT 2.4 08 Dec 01:02:09 01:04:36 34° 170° (S) 01:07:04 2401.200-2431.200
ITUPSAT 1 08 Dec 01:04:50 01:08:25 21° 63° (ENE) 01:11:59 437.325
Cosmos 2499 08 Dec 01:05:01 01:13:40 82° 279° (W) 01:22:39 435.465 / 435.565
O/OREOS (USA 219) 08 Dec 01:07:23 01:11:39 41° 61° (ENE) 01:15:53 437.305
Gurwin Techsat 1B 08 Dec 01:13:19 01:16:42 17° 90° (E) 01:20:04 435.225
TISAT 1 08 Dec 01:16:07 01:20:19 65° 259° (WSW) 01:24:34 437.305
JAS-2 08 Dec 01:17:12 01:21:09 22° 297° (WNW) 01:25:12 435.910
BUGSAT 1 08 Dec 01:24:54 01:28:53 43° 289° (WNW) 01:32:48 437.445
DX 1 08 Dec 01:29:23 01:30:40 11° 271° (W) 01:31:58 434.975-435.025
UKube-1 08 Dec 01:31:24 01:33:35 14° 269° (W) 01:35:48 .
AUBIESAT-1 08 Dec 01:56:37 02:00:49 87° 76° (ENE) 02:05:20 437.475
AO-85 08 Dec 02:01:18 02:06:14 86° 121° (ESE) 02:10:48 145.980
SWISSCUBE 08 Dec 02:08:09 02:12:56 86° 256° (WSW) 02:17:43 437.505
M-CUBED/EXP-1 PRIME 08 Dec 02:10:52 02:14:57 54° 255° (WSW) 02:19:21 437.505
BEESAT 08 Dec 02:11:57 02:16:44 88° 260° (W) 02:21:32 436.000
PHONESAT 2.4 08 Dec 02:37:04 02:39:35 39° 186° (S) 02:42:05 2401.200-2431.200
Oscar 19 08 Dec 02:39:10 02:44:05 44° 291° (WNW) 02:48:59 437.125/150
ITUPSAT 1 08 Dec 02:41:20 02:45:55 46° 261° (W) 02:50:32 437.325
O/OREOS (USA 219) 08 Dec 02:47:29 02:50:45 20° 259° (WSW) 02:54:00 437.305
Gurwin Techsat 1B 08 Dec 02:51:50 02:57:07 65° 288° (WNW) 03:02:22 435.225
GONETS M04 08 Dec 02:57:06 03:03:39 23° 298° (WNW) 03:10:13
MOZHAYETS 4 08 Dec 02:59:28 03:04:01 68° 74° (ENE) 03:08:35
Cosmos 2499 08 Dec 03:02:20 03:08:17 20° 301° (WNW) 03:14:21 435.465 / 435.565
SO-50 08 Dec 03:08:54 03:12:14 20° 39° (NE) 03:15:31 436.795
CUBESAT XI-V 08 Dec 03:10:19 03:12:46 14° 61° (ENE) 03:15:14 437.345
ITAMSAT 1 08 Dec 03:11:59 03:16:58 46° 99° (E) 03:21:56 435.822/435.867
KKS-1 08 Dec 03:14:29 03:18:42 43° 70° (ENE) 03:22:58 437.445
STARS 08 Dec 03:15:28 03:18:51 22° 65° (ENE) 03:22:15 437.465
BEESAT 3 08 Dec 03:35:28 03:36:18 11° 108° (ESE) 03:37:07 437.485
AO-7 08 Dec 03:38:12 03:46:16 48° 101° (E) 03:54:15 29.400- 29.500
AO-85 08 Dec 03:44:08 03:47:11 17° 321° (NW) 03:50:06 145.980
BEESAT 2 08 Dec 04:08:51 04:10:06 11° 108° (ESE) 04:11:20 435.950
PHONESAT 2.4 08 Dec 04:12:37 04:14:25 16° 202° (SSW) 04:16:13 2401.200-2431.200
YUBILEINY 08 Dec 04:32:35 04:38:57 21° 61° (ENE) 04:45:18 435.215
MOZHAYETS 4 08 Dec 04:39:41 04:41:39 13° 271° (W) 04:43:37
BRITE-PL 08 Dec 04:39:43 04:44:13 25° 93° (E) 04:48:51 437.365/2234.400
CUBESAT XI-V 08 Dec 04:45:02 04:49:36 67° 259° (WSW) 04:54:12 437.345
SO-50 08 Dec 04:48:39 04:53:10 68° 239° (WSW) 04:57:35 436.795
STARS 08 Dec 04:50:48 04:54:57 39° 262° (W) 04:59:08 437.465
ITAMSAT 1 08 Dec 04:52:03 04:56:09 24° 297° (WNW) 05:00:15 435.822/435.867
KKS-1 08 Dec 04:52:13 04:55:27 19° 267° (W) 04:58:42 437.445
Cosmos 2491 08 Dec 05:07:19 05:11:12 14° 73° (ENE) 05:15:06 435.465 / 435.565
BEESAT 3 08 Dec 05:09:26 05:13:19 72° 306° (NW) 05:17:16 437.485
NOAA 15 08 Dec 05:19:10 05:21:33 13° 89° (E) 05:23:54 137.62
Cubesat XI-IV 08 Dec 05:29:49 05:32:48 15° 89° (E) 05:35:46 437.490
AO-7 08 Dec 05:31:11 05:38:54 43° 300° (WNW) 05:46:36 29.400- 29.500
LilacSat-2 08 Dec 05:36:31 05:38:34 14° 91° (E) 05:40:37 437.200
AIST 1 08 Dec 05:39:02 05:41:25 14° 68° (ENE) 05:43:47
GOMX 1 08 Dec 05:42:00 05:47:12 41° 97° (E) 05:52:19 467.674
DOVE 4 08 Dec 05:42:18 05:45:49 18° 89° (E) 05:49:15 437.250
BEESAT 2 08 Dec 05:43:23 05:47:18 69° 306° (NW) 05:51:18 435.950
HORYU 2 08 Dec 05:54:40 05:59:07 84° 101° (E) 06:03:32 437.375
STRAND 1 08 Dec 06:01:42 06:06:13 32° 67° (ENE) 06:10:45 437.568
Cosmos 2504 08 Dec 06:10:34 06:18:46 41° 71° (ENE) 06:26:29 435.465 / 435.565
BRITE-PL 08 Dec 06:17:36 06:22:50 49° 289° (WNW) 06:28:16 437.365/2234.400
YUBILEINY 08 Dec 06:28:08 06:37:02 89° 265° (W) 06:45:53 435.215
CUTE-I 08 Dec 06:41:20 06:46:40 68° 102° (ESE) 06:51:56 437.470
CINEMA 3 08 Dec 06:44:30 06:47:31 17° 89° (E) 06:50:27 145.822/145.860
BEESAT 3 08 Dec 06:50:22 06:51:41 11° 325° (NW) 06:53:01 437.485
